Flag for U.S.A. Weather past 2 weeks in Memphis, Tennessee, U.S.A.

Now
83 °F

High level clouds.


Feels Like: 89 °F
Forecast: 76 / 89 °F
Wind: 14 mph from Southwest

Location: Memphis International Airport

Current Time: Jul 7, 2015 at 11:43:08 PM

Latest Report: Jul 7, 2015 at 10:54 PM


Visibility: 10 mi

Pressure: 30.03 "Hg

Humidity: 74%

Dew point: 74 °F

Location of MemphisLocation

Historic Weather in Memphis — Graph

°F

Memphis temperature yesterday

Maximum temperature yesterday: 86 °F (at 3:54 PM)
Minimum temperature yesterday: 70 °F (at 2:54 AM)
Average temperature yesterday: 78 °F

Past Weeks' High & Low Weather Summary

 TemperatureHumidityPressure
High97 °F (Jun 24, 1:54 PM)94% (Jul 3, 5:58 AM)30.13 "Hg (Jul 3, 5:58 AM)
Low67 °F (Jun 28, 4:54 AM)42% (Jun 28, 2:54 PM)29.83 "Hg (Jul 2, 6:54 PM)
Average80 °F73%29.98 "Hg
* Reported Jun 22 9:54 PM — Jul 7 9:54 PM, Memphis, Weather by CustomWeather, © 2015

Note: Actual official high and low records may vary slightly from our data, if they occured in-between our weather recording intervals... More about our weather records

Advertising

Memphis weather history for previous 24 hours

 ConditionsComfort  
Time TempWeatherWind HumidityBarometerVisibility
9:54 PM
Tue, Jul 7
82 °FHigh level clouds.7 mph77%30.03 "Hg10 mi
8:54 PM84 °FHigh level clouds.7 mph72%30.02 "Hg10 mi
7:54 PM84 °FHigh level clouds.6 mph67%30.01 "Hg10 mi
6:54 PM86 °FHigh level clouds.7 mph63%30.00 "Hg10 mi
5:54 PM87 °FBroken clouds.12 mph61%29.99 "Hg10 mi
4:54 PM89 °FBroken clouds.14 mph59%29.99 "Hg10 mi
3:54 PM89 °FScattered clouds.12 mph61%30.00 "Hg10 mi
2:54 PM91 °FScattered clouds.12 mph57%30.01 "Hg10 mi
1:54 PM90 °FPartly sunny.12 mph59%30.01 "Hg10 mi
12:54 PM89 °FScattered clouds.13 mph59%30.02 "Hg10 mi
11:54 AM87 °FScattered clouds.12 mph65%30.04 "Hg10 mi
10:54 AM86 °FScattered clouds.13 mph67%30.04 "Hg10 mi
9:54 AM84 °FScattered clouds.9 mph72%30.04 "Hg10 mi
8:54 AM82 °FBroken clouds.12 mph77%30.05 "Hg10 mi
7:54 AM80 °FScattered clouds.8 mph81%30.04 "Hg10 mi
6:54 AM78 °FPassing clouds.8 mph84%30.03 "Hg10 mi
5:54 AM78 °FScattered clouds.8 mph84%30.01 "Hg9 mi
4:54 AM79 °FPassing clouds.10 mph82%30.01 "Hg9 mi
3:54 AM78 °FPassing clouds.7 mph84%30.01 "Hg9 mi
2:54 AM78 °FPassing clouds.8 mph84%30.00 "Hg10 mi
1:54 AM78 °FPassing clouds.10 mph84%30.02 "Hg9 mi
12:54 AM79 °FPassing clouds.13 mph82%30.03 "Hg9 mi
11:54 PM
Mon, Jul 6
79 °FPassing clouds.12 mph82%30.03 "Hg10 mi
Weather by CustomWeather, © 2015

See weather overviewHow to use our weather pages